Lubbock, TX

5:50 AM CST on December 16, 2019 (GMT -0600)
Lubbock International

Weather History for KLBB - September, 2019

Change the Weather History Date:

Saturday, September 14, 2019

  Actual Average Record
Temperature  
Mean Temperature 77 °F 72 °F  
Max Temperature 88 °F 85 °F 100 °F (1965)
Min Temperature 66 °F 60 °F 42 °F (1945)
Degree Days  
Heating Degree Days 0 1  
Month to date heating degree days 0 1  
Since 1 July heating degree days 0 1  
Cooling Degree Days 12 8  
Month to date cooling degree days 193 134  
Year to date cooling degree days 1911 1660  
Growing Degree Days 27 (Base 50)    
Moisture  
Dew Point 63 °F    
Average Humidity 78    
Maximum Humidity 100    
Minimum Humidity 34    
Precipitation  
Precipitation 0.00 in 0.09 in 2.17 in (1925)
Month to date precipitation 0.51 1.21  
Year to date precipitation 16.10 14.28  
Snow  
Snow 0.00 in 0.00 in 0.00 in (2002)
Month to date snowfall 0.0 0.0  
Since 1 July snowfall 0.0 0.0  
Since 1 September snowfall 0.0 0.0  
Snow Depth 0.00 in    
Sea Level Pressure  
Sea Level Pressure 30.15 in    
Wind  
Wind Speed 7 mph ()    
Max Wind Speed 18 mph    
Max Gust Speed 23 mph    
Visibility 5.2 miles    
Events Fog    
T = Trace of Precipitation, MM = Missing Value Source: Averaged Metar Reports

Daily Weather History Graph

Daily Weather History Graph

Search for Another Location

Airport or City:

Astronomy

Sep. 14, 2019 Rise Set
Actual Time 7:29 AM CDT 7:55 PM CDT
Civil Twilight 7:04 AM CDT 8:20 PM CDT
Nautical Twilight 6:35 AM CDT 8:49 PM CDT
Astronomical Twilight 6:05 AM CDT 9:19 PM CDT
Moon 8:37 PM CDT (9/14) 7:47 AM CDT (9/14)
Length of Visible Light 13h 15m
Length of Day
12h 25m
Full, 100% of the Moon is Illuminated
Sep 14
Full
Sep 21
Last Quarter
Sep 28
New
Oct 5
First Quarter
Oct 13
Full

Hourly Weather History & Observations

Time (CDT) Temp. Heat Index Dew Point Humidity Pressure Visibility Wind Dir Wind Speed Gust Speed Precip Events Conditions
12:53 AM 70.0 °F - 64.9 °F 84% 30.12 in 10.0 mi SSE 10.4 mph - N/A   Scattered Clouds
1:53 AM 69.1 °F - 66.0 °F 90% 30.12 in 10.0 mi SE 10.4 mph - N/A   Partly Cloudy
2:53 AM 68.0 °F - 66.0 °F 93% 30.11 in 7.0 mi SE 10.4 mph - N/A   Scattered Clouds
3:53 AM 68.0 °F - 66.0 °F 93% 30.09 in 6.0 mi SE 9.2 mph - N/A   Scattered Clouds
4:37 AM 66.9 °F - 66.0 °F 97% 30.23 in 4.0 mi SE 6.9 mph - N/A   Scattered Clouds
4:53 AM 66.9 °F - 66.0 °F 97% 30.09 in 4.0 mi SE 5.8 mph - N/A   Mostly Cloudy
5:17 AM 66.0 °F - 64.9 °F 96% 30.23 in 4.0 mi ESE 5.8 mph - N/A   Mostly Cloudy
5:28 AM 66.0 °F - 64.9 °F 96% 30.23 in 2.0 mi ESE 3.5 mph - N/A   Mostly Cloudy
5:38 AM 66.0 °F - 64.0 °F 93% 30.23 in 2.0 mi SE 4.6 mph - N/A   Overcast
5:43 AM 66.0 °F - 64.0 °F 93% 30.23 in 1.2 mi SE 5.8 mph - N/A   Overcast
5:49 AM 66.2 °F - 64.4 °F 94% 30.23 in 1.0 mi SE 4.6 mph - N/A   Mist
5:53 AM 66.9 °F - 64.9 °F 93% 30.09 in 0.2 mi SE 5.8 mph - N/A Fog Fog
6:08 AM 66.9 °F - 66.0 °F 97% 30.23 in 0.1 mi SE 5.8 mph - N/A Fog Fog
6:25 AM 66.9 °F - 66.0 °F 97% 30.23 in 0.2 mi SE 5.8 mph - N/A Fog Fog
6:48 AM 66.2 °F - 66.2 °F 100% 30.24 in 0.2 mi SSE 8.1 mph - N/A Fog Fog
6:51 AM 66.2 °F - 66.2 °F 100% 30.24 in 0.5 mi SE 8.1 mph - N/A Fog Fog
6:53 AM 66.0 °F - 66.0 °F 100% 30.10 in 0.5 mi SE 6.9 mph - N/A Fog Fog
7:16 AM 66.0 °F - 64.9 °F 96% 30.24 in 0.5 mi SSE 5.8 mph - N/A Fog Fog
7:20 AM 66.0 °F - 64.9 °F 96% 30.24 in 0.2 mi SSE 5.8 mph - N/A Fog Fog
7:53 AM 66.0 °F - 64.9 °F 96% 30.13 in 0.1 mi SSE 5.8 mph - N/A Fog Fog
8:01 AM 66.0 °F - 64.9 °F 96% 30.26 in 0.1 mi SSE 5.8 mph - N/A Fog Fog
8:03 AM 66.0 °F - 64.9 °F 96% 30.26 in 0.1 mi SSE 6.9 mph - N/A Fog Fog
8:12 AM 66.0 °F - 64.9 °F 96% 30.26 in 0.8 mi SSE 5.8 mph - N/A   Mist
8:20 AM 66.0 °F - 66.0 °F 100% 30.26 in 2.0 mi SSE 5.8 mph - N/A   Mostly Cloudy
8:26 AM 66.9 °F - 66.0 °F 97% 30.26 in 3.0 mi SSE 6.9 mph - N/A   Scattered Clouds
8:53 AM 66.9 °F - 66.0 °F 97% 30.15 in 5.0 mi South 6.9 mph - N/A   Partly Cloudy
9:53 AM 75.0 °F - 61.0 °F 62% 30.14 in 10.0 mi SSW 9.2 mph - N/A   Partly Cloudy
10:53 AM 80.1 °F 80.7 °F 59.0 °F 48% 30.14 in 10.0 mi SSW 11.5 mph - N/A   Scattered Clouds
11:53 AM 82.0 °F 81.7 °F 57.0 °F 42% 30.13 in 10.0 mi SSW 16.1 mph - N/A   Partly Cloudy
12:53 PM 84.9 °F 84.2 °F 57.9 °F 40% 30.11 in 10.0 mi South 12.7 mph - N/A   Scattered Clouds
1:53 PM 84.0 °F 83.3 °F 57.0 °F 40% 30.09 in 10.0 mi SW 10.4 mph - N/A   Scattered Clouds
2:53 PM 86.0 °F 84.7 °F 55.9 °F 36% 30.06 in 10.0 mi South 12.7 mph 19.6 mph N/A   Mostly Cloudy
3:53 PM 87.1 °F 85.7 °F 55.9 °F 35% 30.03 in 10.0 mi SSW 11.5 mph 20.7 mph N/A   Mostly Cloudy
4:53 PM 87.1 °F 85.7 °F 55.9 °F 35% 30.02 in 10.0 mi SSW 11.5 mph - N/A   Mostly Cloudy
5:53 PM 84.9 °F 83.7 °F 55.9 °F 37% 30.01 in 10.0 mi South 9.2 mph - N/A   Mostly Cloudy
6:53 PM 84.9 °F 83.7 °F 55.9 °F 37% 30.01 in 10.0 mi SSE 11.5 mph - N/A   Mostly Cloudy
7:53 PM 81.0 °F 81.0 °F 57.0 °F 44% 30.03 in 10.0 mi SSE 9.2 mph - N/A   Mostly Cloudy
8:53 PM 77.0 °F - 57.9 °F 52% 30.04 in 10.0 mi SSE 8.1 mph - N/A   Scattered Clouds
9:53 PM 73.0 °F - 60.1 °F 64% 30.06 in 10.0 mi SE 5.8 mph - N/A   Partly Cloudy
10:53 PM 73.0 °F - 59.0 °F 61% 30.06 in 10.0 mi SSE 6.9 mph - N/A   Mostly Cloudy
11:53 PM 71.1 °F - 59.0 °F 66% 30.06 in 10.0 mi SSE 6.9 mph - N/A   Scattered Clouds